Regional Weather Roundup
Issued by NWS

Home | Current Version | Previous Version | Graphics & Text | Print | Product List | Glossary On
Versions: 1 2 3 4 5 6 7 8 9 10 11 12 13 14 15 16 17 18 19 20 21 22 23 24 25 26 27 28 29 30 31 32 33 34 35 36 37 38 39 40 41 42 43 44 45 46 47 48 49 50
000
ASUS43 KLSX 142310
RWRMO

WEATHER SUMMARY FOR MISSOURI
NATIONAL WEATHER SERVICE SPRINGFIELD MO
500 PM CST SUN FEB 14 2016

NOTE: "FAIR" INDICATES FEW OR NO CLOUDS BELOW 12,000 FEET WITH NO
       SIGNIFICANT WEATHER AND/OR OBSTRUCTIONS TO VISIBILITY.
       CURRENT SKY AND/OR WEATHER CONDITIONS ARE NOT AVAILABLE FOR
       CHILLICOTHE AND FARMINGTON.

MOZ001>031-035>038-043-044-053-054-150000-
...NORTHERN AND WESTERN MISSOURI...

CITY           SKY/WX    TMP DP  RH WIND       PRES   REMARKS
KANSAS CTY INT PTCLDY    49  30  48 W9        29.85R
KANSAS C DTWN  CLEAR     51  28  41 NW8       29.85R
LEE`S SUMMIT   CLEAR     50  30  46 W9        29.85R
ST JOSEPH      CLEAR     48  29  47 NW10      29.85S
CHILLICOTHE      N/A     46  27  47 VRB5      29.85S
KIRKSVILLE     CLOUDY    28  23  81 E7        29.88S WCI  21

$$
MOZ066>068-077>081-088>096-101>105-150000-
...SOUTHWEST MISSOURI...

CITY           SKY/WX    TMP DP  RH WIND       PRES   REMARKS
SPRINGFIELD    CLOUDY    36  30  79 S9        29.90S WCI  29
JOPLIN         CLOUDY    51  36  56 S7        29.87F

$$
MOZ032>034-039>042-045>050-055>058-069>072-150000-
...CENTRAL MISSOURI...

CITY           SKY/WX    TMP DP  RH WIND       PRES   REMARKS
COLUMBIA       CLOUDY    33  28  81 S7        29.89S WCI  27
JEFFERSON CITY CLOUDY    34  28  79 S8        29.92R WCI  27
ROLLA          CLOUDY    30  28  92 SW9       29.89R WCI  22
SEDALIA        CLEAR     41  32  70 S9        29.88S
WHITEMAN AFB   CLEAR     46  32  58 W5        29.85S
WARRENSBURG    CLEAR     46  32  57 SW5       29.86R
OSAGE BEACH    CLOUDY    34  28  80 CALM      29.90S

$$
MOZ051-052-059>065-150000-
...EAST CENTRAL MISSOURI...

CITY           SKY/WX    TMP DP  RH WIND       PRES   REMARKS
ST LOUIS INTL  CLOUDY    28  22  78 SE12      29.96F WCI  18
SPIRIT OF STL  CLOUDY    28  23  81 SE7       29.96S WCI  21
ST CHARLES     CLOUDY    26  22  84 SE7       29.97S WCI  18

$$
MOZ072>076-082>087-097>100-106>115-150000-
...SOUTH CENTRAL AND SOUTHEAST MISSOURI...

CITY           SKY/WX    TMP DP  RH WIND       PRES   REMARKS
CAPE GIRARDEAU CLOUDY    28  26  92 SE8       30.02R WCI  20
FARMINGTON     CLOUDY    27  24  89 S8        29.96S WCI  19
POPLAR BLUFF   CLOUDY    29  27  92 SE5       30.00S WCI  24
WEST PLAINS    CLOUDY    29  26  89 S3        29.94R FOG

$$



USA.gov is the U.S. government's official web portal to all federal, state and local government web resources and services.